| time (UTC) | temp C | wind direction | speed KPH | gust KPH | rain 1hr cm | rain 24hr cm | rain mn cm | humidity % | barometer mb |
| 20260901175516 | 30 | 203 | 4.8 | 12.9 | 0.00 | 0.00 | 0.00 | 74 | 1015.1 |
| 20260901174515 | 29 | 248 | 3.2 | 11.3 | 0.00 | 0.00 | 0.00 | 80 | 1015.4 |
| 20260901173515 | 29 | 270 | 4.8 | 12.9 | 0.00 | 0.00 | 0.00 | 78 | 1015.3 |
| 20260901172516 | 29 | 225 | 3.2 | 9.7 | 0.00 | 0.00 | 0.00 | 75 | 1015.3 |
| 20260901171515 | 29 | 203 | 1.6 | 6.4 | 0.00 | 0.00 | 0.00 | 81 | 1015.3 |
| 20260901170515 | 28 | 248 | 1.6 | 9.7 | 0.00 | 0.00 | 0.00 | 80 | 1015.3 |
| 20260901165536 | 29 | 0.0 | 4.8 | 0.00 | 0.00 | 0.00 | 79 | 1015.5 | |
| 20260901164515 | 28 | 158 | 1.6 | 6.4 | 0.00 | 0.00 | 0.00 | 80 | 1015.5 |
| 20260901163515 | 28 | 248 | 3.2 | 6.4 | 0.00 | 0.00 | 0.00 | 80 | 1015.4 |
| 20260901162516 | 28 | 0.0 | 3.2 | 0.00 | 0.00 | 0.00 | 81 | 1015.4 | |
| 20260901161515 | 27 | 180 | 1.6 | 4.8 | 0.00 | 0.00 | 0.00 | 84 | 1015.6 |
| 20260901160535 | 27 | 225 | 3.2 | 8.0 | 0.00 | 0.00 | 0.00 | 86 | 1015.6 |
| 20260901155515 | 26 | 293 | 3.2 | 6.4 | 0.00 | 0.00 | 0.00 | 86 | 1015.5 |
| 20260901154515 | 26 | 248 | 1.6 | 6.4 | 0.00 | 0.00 | 0.00 | 92 | 1015.6 |
| 20260901153515 | 25 | 270 | 1.6 | 3.2 | 0.00 | 0.00 | 0.00 | 96 | 1015.5 |
| 20260901152515 | 24 | 293 | 1.6 | 4.8 | 0.00 | 0.00 | 0.00 | 98 | 1015.5 |
| 20260901151515 | 23 | 0.0 | 1.6 | 0.00 | 0.00 | 0.00 | 98 | 1015.2 | |
| 20260901150515 | 23 | 0.0 | 0.0 | 0.00 | 0.00 | 0.00 | 98 | 1015.2 | |
| 20260901145537 | 23 | 203 | 1.6 | 3.2 | 0.00 | 0.00 | 0.00 | 98 | 1015.2 |
| 20260901144515 | 23 | 0.0 | 0.0 | 0.00 | 0.00 | 0.00 | 99 | 1015.2 | |
| 20260901143515 | 23 | 0.0 | 4.8 | 0.00 | 0.00 | 0.00 | 98 | 1015.1 | |
| 20260901142515 | 23 | 0.0 | 0.0 | 0.00 | 0.00 | 0.00 | 98 | 1015.1 | |
| 20260901141515 | 23 | 0.0 | 0.0 | 0.00 | 0.00 | 0.00 | 99 | 1015.2 | |
| 20260901140535 | 22 | 0.0 | 0.0 | 0.00 | 0.00 | 0.00 | 99 | 1015.1 | |
| 20260901135535 | 22 | 0.0 | 0.0 | 0.00 | 0.00 | 0.00 | 99 | 1015.2 | |
| 20260901134555 | 22 | 0.0 | 0.0 | 0.00 | 0.00 | 0.00 | 99 | 1015.3 | |
| 20260901133517 | 21 | 0.0 | 4.8 | 0.00 | 0.00 | 0.00 | 98 | 1015.5 | |
| 20260901132517 | 21 | 248 | 1.6 | 4.8 | 0.00 | 0.00 | 0.00 | 98 | 1015.7 |
| 20260901131517 | 21 | 225 | 1.6 | 6.4 | 0.00 | 0.00 | 0.00 | 98 | 1015.6 |
| 20260901130537 | 21 | 225 | 1.6 | 4.8 | 0.00 | 0.00 | 0.00 | 98 | 1015.7 |
| 20260901125517 | 21 | 0.0 | 0.0 | 0.00 | 0.00 | 0.00 | 98 | 1015.5 | |
| 20260901124517 | 21 | 0.0 | 0.0 | 0.00 | 0.00 | 0.00 | 98 | 1015.3 | |
| 20260901123517 | 21 | 0.0 | 0.0 | 0.00 | 0.00 | 0.00 | 98 | 1015.1 | |
| 20260901122517 | 21 | 0.0 | 0.0 | 0.00 | 0.00 | 0.00 | 98 | 1015.2 | |
| 20260901121517 | 20 | 0.0 | 0.0 | 0.00 | 0.00 | 0.00 | 98 | 1014.9 | |
| 20260901120517 | 20 | 0.0 | 0.0 | 0.00 | 0.00 | 0.00 | 98 | 1014.8 | |
| 20260901115517 | 20 | 0.0 | 0.0 | 0.00 | 0.00 | 0.00 | 98 | 1014.7 | |
| 20260901114537 | 20 | 0.0 | 0.0 | 0.00 | 0.00 | 0.00 | 98 | 1014.6 | |
| 20260901113517 | 20 | 0.0 | 0.0 | 0.00 | 0.00 | 0.00 | 98 | 1014.6 | |
| 20260901112537 | 20 | 0.0 | 0.0 | 0.00 | 0.00 | 0.00 | 97 | 1014.6 | |
| 20260901111517 | 21 | 0.0 | 0.0 | 0.00 | 0.00 | 0.00 | 98 | 1014.6 | |
| 20260901110517 | 21 | 0.0 | 0.0 | 0.00 | 0.00 | 0.00 | 98 | 1014.5 | |
| 20260901105538 | 20 | 0.0 | 0.0 | 0.00 | 0.00 | 0.00 | 98 | 1014.3 | |
| 20260901104517 | 20 | 0.0 | 0.0 | 0.00 | 0.00 | 0.00 | 98 | 1014.2 | |
| 20260901103517 | 20 | 0.0 | 0.0 | 0.00 | 0.00 | 0.00 | 98 | 1014.4 | |
| 20260901102517 | 20 | 0.0 | 3.2 | 0.00 | 0.00 | 0.00 | 97 | 1014.5 | |
| 20260901101517 | 20 | 0.0 | 0.0 | 0.00 | 0.00 | 0.00 | 97 | 1014.5 | |
| 20260901100517 | 21 | 0.0 | 0.0 | 0.00 | 0.00 | 0.00 | 97 | 1014.4 | |
| 20260901095538 | 21 | 0.0 | 0.0 | 0.00 | 0.00 | 0.00 | 97 | 1014.5 | |
| 20260901094517 | 21 | 0.0 | 0.0 | 0.00 | 0.00 | 0.00 | 98 | 1014.4 | |
| 20260901093537 | 21 | 0.0 | 0.0 | 0.00 | 0.00 | 0.00 | 98 | 1014.3 | |
| 20260901092517 | 21 | 0.0 | 0.0 | 0.00 | 0.00 | 0.00 | 98 | 1014.2 | |
| 20260901091517 | 21 | 0.0 | 0.0 | 0.00 | 0.00 | 0.00 | 97 | 1014.3 | |
| 20260901090517 | 21 | 0.0 | 0.0 | 0.00 | 0.00 | 0.00 | 97 | 1014.2 | |
| 20260901085516 | 21 | 0.0 | 0.0 | 0.00 | 0.00 | 0.00 | 97 | 1014.2 | |
| 20260901084517 | 22 | 0.0 | 0.0 | 0.00 | 0.00 | 0.00 | 97 | 1014.2 | |
| 20260901083517 | 22 | 0.0 | 0.0 | 0.00 | 0.00 | 0.00 | 98 | 1014.3 | |
| 20260901082517 | 22 | 0.0 | 0.0 | 0.00 | 0.00 | 0.00 | 97 | 1014.4 | |
| 20260901081517 | 22 | 0.0 | 0.0 | 0.00 | 0.00 | 0.00 | 98 | 1014.3 | |
| 20260901080517 | 22 | 0.0 | 0.0 | 0.00 | 0.00 | 0.00 | 97 | 1014.3 | |
| 20260901075517 | 22 | 0.0 | 0.0 | 0.00 | 0.00 | 0.00 | 98 | 1014.4 | |
| 20260901074516 | 21 | 0.0 | 0.0 | 0.00 | 0.00 | 0.00 | 97 | 1014.7 | |
| 20260901073517 | 22 | 0.0 | 0.0 | 0.00 | 0.00 | 0.00 | 96 | 1014.6 | |
| 20260901072516 | 22 | 0.0 | 0.0 | 0.00 | 0.00 | 0.00 | 97 | 1014.7 | |
| 20260901071616 | 22 | 0.0 | 0.0 | 0.00 | 0.00 | 0.00 | 97 | 1014.6 | |
| 20260901070516 | 22 | 0.0 | 0.0 | 0.00 | 0.00 | 0.00 | 97 | 1014.4 | |
| 20260901065517 | 22 | 0.0 | 0.0 | 0.00 | 0.00 | 0.00 | 97 | 1014.4 | |
| 20260901064517 | 22 | 0.0 | 0.0 | 0.00 | 0.00 | 0.00 | 96 | 1014.5 | |
| 20260901063537 | 22 | 0.0 | 0.0 | 0.00 | 0.00 | 0.00 | 97 | 1014.5 | |
| 20260901062516 | 22 | 0.0 | 0.0 | 0.00 | 0.00 | 0.00 | 97 | 1014.6 | |
| 20260901061536 | 22 | 0.0 | 0.0 | 0.00 | 0.00 | 0.00 | 97 | 1014.4 | |
| 20260901060517 | 22 | 0.0 | 0.0 | 0.00 | 0.00 | 0.00 | 97 | 1014.3 | |
| 20260901055517 | 22 | 0.0 | 0.0 | 0.00 | 0.00 | 0.00 | 96 | 1014.3 | |
| 20260901054516 | 23 | 0.0 | 0.0 | 0.00 | 0.00 | 0.00 | 96 | 1014.4 | |
| 20260901053516 | 23 | 0.0 | 0.0 | 0.00 | 0.00 | 0.00 | 96 | 1014.2 | |
| 20260901052516 | 23 | 0.0 | 0.0 | 0.00 | 0.00 | 0.00 | 96 | 1014.3 | |
| 20260901051516 | 23 | 0.0 | 0.0 | 0.00 | 0.00 | 0.00 | 96 | 1014.3 | |
| 20260901050516 | 23 | 0.0 | 0.0 | 0.00 | 0.00 | 0.00 | 96 | 1014.2 | |
| 20260901045515 | 23 | 0.0 | 0.0 | 0.00 | 0.00 | 0.00 | 95 | 1013.9 | |
| 20260901044515 | 23 | 0.0 | 0.0 | 0.00 | 0.00 | 0.00 | 95 | 1013.9 | |
| 20260901043517 | 23 | 0.0 | 0.0 | 0.00 | 0.00 | 0.00 | 95 | 1013.8 | |
| 20260901042517 | 23 | 0.0 | 1.6 | 0.00 | 0.00 | 0.00 | 94 | 1013.8 | |
| 20260901041517 | 23 | 0.0 | 0.0 | 0.00 | 0.00 | 0.00 | 94 | 1013.9 | |
| 20260901040517 | 23 | 0.0 | 0.0 | 0.00 | 0.00 | 0.00 | 94 | 1014.0 | |
| 20260901035517 | 23 | 0.0 | 0.0 | 0.00 | 0.00 | 0.00 | 93 | 1014.1 | |
| 20260901034517 | 24 | 0.0 | 1.6 | 0.00 | 0.00 | 0.00 | 93 | 1014.0 | |
| 20260901033517 | 24 | 0.0 | 4.8 | 0.00 | 0.00 | 0.00 | 92 | 1014.0 | |
| 20260901032517 | 24 | 180 | 3.2 | 6.4 | 0.00 | 0.00 | 0.00 | 92 | 1014.1 |
| 20260901031517 | 24 | 0.0 | 0.0 | 0.00 | 0.00 | 0.00 | 92 | 1014.1 | |
| 20260901030517 | 24 | 0.0 | 0.0 | 0.00 | 0.00 | 0.00 | 92 | 1014.1 | |
| 20260901025517 | 25 | 0.0 | 0.0 | 0.00 | 0.00 | 0.00 | 91 | 1014.0 | |
| 20260901024538 | 25 | 0.0 | 0.0 | 0.00 | 0.00 | 0.00 | 90 | 1014.2 | |
| 20260901023537 | 25 | 0.0 | 0.0 | 0.00 | 0.00 | 0.00 | 90 | 1014.0 | |
| 20260901022517 | 25 | 0.0 | 0.0 | 0.00 | 0.00 | 0.00 | 89 | 1014.0 | |
| 20260901021517 | 25 | 0.0 | 0.0 | 0.00 | 0.00 | 0.00 | 89 | 1014.1 | |
| 20260901020517 | 25 | 0.0 | 0.0 | 0.00 | 0.00 | 0.00 | 88 | 1013.9 | |
| 20260901015517 | 25 | 0.0 | 0.0 | 0.00 | 0.00 | 0.00 | 88 | 1013.9 | |
| 20260901014517 | 25 | 0.0 | 0.0 | 0.00 | 0.00 | 0.00 | 87 | 1013.8 | |
| 20260901013517 | 25 | 0.0 | 0.0 | 0.00 | 0.00 | 0.00 | 86 | 1013.6 | |
| 20260901012517 | 26 | 0.0 | 0.0 | 0.00 | 0.00 | 0.00 | 85 | 1013.5 | |
| 20260901011517 | 26 | 203 | 1.6 | 4.8 | 0.00 | 0.00 | 0.00 | 84 | 1013.3 |
| 20260901010517 | 26 | 203 | 1.6 | 6.4 | 0.00 | 0.00 | 0.00 | 83 | 1013.4 |
| 20260901005537 | 27 | 203 | 1.6 | 6.4 | 0.00 | 0.00 | 0.00 | 82 | 1013.3 |
| 20260901004517 | 27 | 0.0 | 0.0 | 0.00 | 0.00 | 0.00 | 81 | 1013.4 | |
| 20260901003517 | 27 | 0.0 | 0.0 | 0.00 | 0.00 | 0.00 | 80 | 1013.4 | |
| 20260901002517 | 28 | 0.0 | 3.2 | 0.00 | 0.00 | 0.00 | 80 | 1013.4 | |
| 20260901001518 | 28 | 0.0 | 4.8 | 0.00 | 0.00 | 0.00 | 79 | 1013.3 | |
| 20260901000537 | 28 | 0.0 | 0.0 | 0.00 | 0.00 | 0.00 | 80 | 1013.2 | |
| 20260831235517 | 28 | 248 | 3.2 | 6.4 | 0.00 | 0.43 | 0.00 | 79 | 1013.2 |
| 20260831234537 | 28 | 0.0 | 4.8 | 0.00 | 0.43 | 0.00 | 78 | 1013.2 | |
| 20260831233518 | 28 | 225 | 1.6 | 6.4 | 0.00 | 0.43 | 0.00 | 79 | 1013.2 |
| 20260831232517 | 28 | 225 | 3.2 | 8.0 | 0.00 | 0.43 | 0.00 | 77 | 1013.1 |
| 20260831231517 | 29 | 248 | 4.8 | 11.3 | 0.00 | 0.43 | 0.00 | 75 | 1012.9 |
| 20260831230517 | 30 | 225 | 3.2 | 9.7 | 0.00 | 0.43 | 0.00 | 77 | 1012.9 |
| 20260831225517 | 30 | 225 | 1.6 | 14.5 | 0.00 | 0.43 | 0.00 | 78 | 1012.7 |
| 20260831224537 | 28 | 225 | 3.2 | 8.0 | 0.00 | 0.43 | 0.00 | 81 | 1012.6 |
| 20260831223517 | 29 | 225 | 1.6 | 8.0 | 0.00 | 0.43 | 0.00 | 79 | 1012.6 |
| 20260831222537 | 30 | 225 | 1.6 | 6.4 | 0.00 | 0.43 | 0.00 | 78 | 1012.9 |
| 20260831221516 | 29 | 203 | 1.6 | 4.8 | 0.00 | 0.43 | 0.00 | 80 | 1012.7 |
| 20260831220517 | 29 | 225 | 4.8 | 11.3 | 0.00 | 0.43 | 0.00 | 78 | 1012.9 |
| 20260831215516 | 30 | 225 | 4.8 | 9.7 | 0.00 | 0.43 | 0.00 | 76 | 1012.7 |
| 20260831215016 | 30 | 248 | 3.2 | 6.4 | 0.00 | 0.43 | 0.00 | 76 | 1012.6 |
| 20260831214016 | 30 | 158 | 4.8 | 12.9 | 0.00 | 0.43 | 0.00 | 76 | 1012.4 |
| 20260831213017 | 30 | 203 | 6.4 | 17.7 | 0.00 | 0.43 | 0.00 | 77 | 1012.2 |
| 20260831212036 | 30 | 158 | 8.0 | 14.5 | 0.00 | 0.43 | 0.00 | 79 | 1012.2 |
| 20260831211037 | 29 | 158 | 6.4 | 14.5 | 0.00 | 0.43 | 0.00 | 84 | 1012.0 |
| 20260831210018 | 28 | 180 | 4.8 | 9.7 | 0.00 | 0.43 | 0.00 | 83 | 1011.9 |
| 20260831205018 | 28 | 158 | 1.6 | 8.0 | 0.00 | 0.43 | 0.00 | 82 | 1011.4 |
| 20260831204016 | 28 | 180 | 3.2 | 9.7 | 0.00 | 0.43 | 0.00 | 80 | 1011.7 |
| 20260831203118 | 28 | 180 | 1.6 | 6.4 | 0.00 | 0.43 | 0.00 | 80 | 1011.8 |
| 20260831202017 | 28 | 158 | 3.2 | 8.0 | 0.00 | 0.43 | 0.00 | 81 | 1011.8 |
| 20260831201037 | 28 | 158 | 1.6 | 8.0 | 0.00 | 0.43 | 0.00 | 80 | 1011.9 |
| 20260831200016 | 28 | 248 | 6.4 | 16.1 | 0.00 | 0.43 | 0.00 | 76 | 1012.8 |
| 20260831195018 | 30 | 248 | 3.2 | 12.9 | 0.00 | 0.43 | 0.00 | 75 | 1012.8 |
| 20260831194016 | 31 | 225 | 3.2 | 11.3 | 0.00 | 0.43 | 0.00 | 71 | 1012.8 |
| 20260831193018 | 30 | 203 | 3.2 | 11.3 | 0.00 | 0.43 | 0.00 | 74 | 1012.6 |
| 20260831192016 | 30 | 225 | 1.6 | 8.0 | 0.00 | 0.43 | 0.00 | 74 | 1012.6 |
| 20260831191017 | 30 | 180 | 1.6 | 6.4 | 0.00 | 0.43 | 0.00 | 72 | 1012.5 |
| 20260831190016 | 30 | 180 | 1.6 | 6.4 | 0.00 | 0.43 | 0.00 | 73 | 1012.5 |
| 20260831185018 | 30 | 203 | 1.6 | 6.4 | 0.00 | 0.43 | 0.00 | 73 | 1012.6 |
| 20260831184016 | 31 | 203 | 1.6 | 8.0 | 0.00 | 0.43 | 0.00 | 72 | 1012.6 |
| 20260831183016 | 30 | 180 | 1.6 | 9.7 | 0.00 | 0.43 | 0.00 | 72 | 1012.7 |
| 20260831182016 | 30 | 180 | 4.8 | 8.0 | 0.00 | 0.43 | 0.00 | 74 | 1012.8 |
| 20260831181016 | 30 | 225 | 3.2 | 11.3 | 0.00 | 0.43 | 0.00 | 74 | 1012.9 |
| 20260831180016 | 30 | 248 | 4.8 | 11.3 | 0.00 | 0.43 | 0.00 | 71 | 1012.7 |